Date String (YYYY-MM-DD hh:mm:ss) UTC,Instrument flags,Ambient pressure (hPa),Sample flow (lpm),Bypass flow (lpm),Sample temperature (°C),Ambient temperature (°C),ASC tube jacket temperature (°C),LED temperature (°C),Box temperature (°C),Sample RH (%),Span deviation,Mass concentration (μg/m³),Mass concentration (μg/m³),Mass concentration (μg/m³)
DateTimeUTC,F1_M11,P_M11,Q1_M11,Q2_M11,T1_M11,T2_M11,T3_M11,T4_M11,T5_M11,U1_M11,ZSPAN_M11,X0_M11,X2_M11,X1_M11
2022-08-16 20:00:00,,0832.2,5.00,0.00,31.4,28.1,00.0,39.7,32.1,33.0,0000.0,0010.55,0005.97,0005.36
2022-08-16 20:01:00,,0832.2,5.00,0.00,31.4,28.2,00.0,39.7,32.1,33.1,0000.0,0010.54,0005.97,0005.37
2022-08-16 20:02:00,,0832.2,4.99,0.00,31.4,28.4,00.0,39.7,32.2,33.5,0000.0,0011.01,0005.98,0005.36
2022-08-16 20:03:00,,0832.2,5.00,0.00,31.4,28.5,00.0,39.7,32.2,33.3,0000.0,0011.06,0005.99,0005.35
2022-08-16 20:04:00,,0832.2,5.00,0.00,31.3,28.6,00.0,39.7,32.2,33.4,0000.0,0011.01,0005.97,0005.36
2022-08-16 20:05:00,,0832.2,5.00,0.00,31.3,28.7,00.0,39.7,32.2,33.5,0000.0,0011.03,0005.97,0005.34
2022-08-16 20:06:00,,0832.2,5.00,0.00,31.3,28.8,00.0,39.7,32.3,33.5,0000.0,0010.52,0006.01,0005.33
2022-08-16 20:07:00,,0832.2,5.00,0.00,31.3,28.9,00.0,39.7,32.3,33.6,0000.0,0010.28,0005.98,0005.31
2022-08-16 20:08:00,,0832.2,5.00,0.00,31.2,29.0,00.0,39.7,32.3,33.5,0000.0,0009.99,0005.97,0005.31
2022-08-16 20:09:00,,0832.2,4.99,0.00,31.2,29.0,00.0,39.7,32.3,33.8,0000.0,0010.01,0005.97,0005.32
2022-08-16 20:10:00,,0832.2,5.01,0.00,31.2,28.4,00.0,39.6,32.1,34.3,0000.0,0009.67,0005.98,0005.32
2022-08-16 20:11:00,,0832.2,4.99,0.00,31.1,27.8,00.0,39.6,32.0,34.5,0000.0,0009.91,0005.95,0005.32
2022-08-16 20:12:00,,0832.1,5.00,0.00,31.0,27.5,00.0,39.5,31.9,33.9,0000.0,0010.05,0005.97,0005.33
2022-08-16 20:13:00,,0832.1,4.99,0.00,30.9,27.6,00.0,39.5,31.9,34.4,0000.0,0009.67,0006.00,0005.34
2022-08-16 20:14:00,,0832.1,5.01,0.00,30.8,27.7,00.0,39.5,31.9,34.0,0000.0,0009.72,0006.04,0005.34
2022-08-16 20:15:00,,0832.1,5.00,0.00,30.7,27.9,00.0,39.4,31.9,34.2,0000.0,0009.97,0006.06,0005.33
2022-08-16 20:16:00,,0832.1,5.01,0.00,30.7,28.0,00.0,39.4,32.0,35.1,0000.0,0010.33,0006.07,0005.32
2022-08-16 20:17:00,,0832.1,4.99,0.00,30.8,28.2,00.0,39.4,32.1,34.3,0000.0,0010.23,0006.02,0005.31
2022-08-16 20:18:00,,0832.1,5.00,0.00,30.9,28.3,00.0,39.4,32.1,34.0,0000.0,0010.16,0006.00,0005.30
2022-08-16 20:19:00,,0832.1,4.99,0.00,30.9,28.5,00.0,39.4,32.1,34.2,0000.0,0010.26,0006.00,0005.29
2022-08-16 20:20:00,,0832.1,5.00,0.00,30.9,28.6,00.0,39.4,32.1,34.3,0000.0,0010.73,0006.00,0005.28
2022-08-16 20:21:00,,0832.1,5.00,0.00,30.9,28.7,00.0,39.4,32.2,34.8,0000.0,0010.97,0005.98,0005.26
2022-08-16 20:22:00,,0832.1,5.00,0.00,31.0,28.8,00.0,39.4,32.2,35.0,0000.0,0010.72,0005.97,0005.25
2022-08-16 20:23:00,,0832.0,5.00,0.00,31.1,28.9,00.0,39.4,32.3,34.4,0000.0,0010.53,0005.94,0005.24
2022-08-16 20:24:00,,0832.0,5.00,0.00,31.3,29.0,00.0,39.4,32.4,33.9,0000.0,0010.47,0005.91,0005.22
2022-08-16 20:25:00,,0832.0,5.00,0.00,31.3,28.9,00.0,39.4,32.3,34.2,0000.0,0010.72,0005.85,0005.20
2022-08-16 20:26:00,,0832.0,4.99,0.00,31.3,28.3,00.0,39.4,32.1,34.4,0000.0,0010.75,0005.79,0005.21
2022-08-16 20:27:00,,0832.1,5.01,0.00,31.2,27.7,00.0,39.4,31.9,34.7,0000.0,0010.83,0005.77,0005.21
2022-08-16 20:28:00,,0832.0,4.99,0.00,31.1,27.5,00.0,39.4,31.9,34.6,0000.0,0010.81,0005.76,0005.21
2022-08-16 20:29:00,,0832.0,5.01,0.00,31.0,27.5,00.0,39.4,31.8,35.0,0000.0,0010.97,0005.83,0005.23
2022-08-16 20:30:00,,0832.1,4.99,0.00,31.1,27.6,00.0,39.4,31.9,34.9,0000.0,0011.28,0005.85,0005.23
2022-08-16 20:31:00,,0832.1,5.01,0.00,31.2,27.8,00.0,39.4,32.0,35.2,0000.0,0011.69,0005.83,0005.22
2022-08-16 20:32:00,,0832.1,5.00,0.00,31.3,28.0,00.0,39.4,32.1,35.6,0000.0,0011.50,0005.81,0005.21
2022-08-16 20:33:00,,0832.1,4.99,0.00,31.6,28.1,00.0,39.4,32.3,33.7,0000.0,0011.52,0005.80,0005.19
2022-08-16 20:34:00,,0832.0,5.00,0.00,31.7,28.3,00.0,39.4,32.3,33.3,0000.0,0011.60,0005.81,0005.17
2022-08-16 20:35:00,,0832.1,5.00,0.00,31.8,28.4,00.0,39.5,32.3,34.3,0000.0,0011.65,0005.81,0005.15
2022-08-16 20:36:00,,0832.1,5.00,0.00,31.8,28.5,00.0,39.5,32.3,33.4,0000.0,0011.59,0005.81,0005.14
2022-08-16 20:37:00,,0832.1,5.00,0.00,31.8,28.7,00.0,39.6,32.3,33.0,0000.0,0011.78,0005.85,0005.12
2022-08-16 20:38:00,,0832.1,5.00,0.00,31.8,28.8,00.0,39.6,32.3,33.5,0000.0,0011.55,0005.89,0005.10
2022-08-16 20:39:00,,0832.1,5.00,0.00,31.8,28.9,00.0,39.7,32.4,33.3,0000.0,0011.68,0005.87,0005.09
2022-08-16 20:40:00,,0832.1,5.00,0.00,31.8,28.9,00.0,39.7,32.4,32.8,0000.0,0011.62,0005.83,0005.07
2022-08-16 20:41:00,,0832.1,4.99,0.00,31.7,29.0,00.0,39.8,32.4,32.8,0000.0,0011.19,0005.80,0005.06
2022-08-16 20:42:00,,0832.0,5.01,0.00,31.7,29.0,00.0,39.8,32.4,32.9,0000.0,0010.34,0005.79,0005.07
2022-08-16 20:43:00,,0832.1,5.01,0.00,31.6,28.3,00.0,39.8,32.2,33.3,0000.0,0010.27,0005.82,0005.08
2022-08-16 20:44:00,,0832.1,4.99,0.00,31.5,27.7,00.0,39.7,32.0,34.0,0000.0,0010.46,0005.85,0005.09
2022-08-16 20:45:00,,0832.1,5.00,0.00,31.4,27.5,00.0,39.7,32.0,34.4,0000.0,0010.36,0005.84,0005.11
2022-08-16 20:46:00,,0832.1,5.00,0.00,31.3,27.5,00.0,39.6,31.9,34.3,0000.0,0010.31,0005.83,0005.12
2022-08-16 20:47:00,,0832.1,5.00,0.00,31.2,27.6,00.0,39.6,31.9,33.6,0000.0,0010.12,0005.87,0005.15
2022-08-16 20:48:00,,0832.1,5.01,0.00,31.1,27.8,00.0,39.6,31.9,33.8,0000.0,0009.82,0005.87,0005.16
2022-08-16 20:49:00,,0832.1,5.00,0.00,31.1,28.0,00.0,39.6,32.0,34.0,0000.0,0009.52,0005.83,0005.16
2022-08-16 20:50:00,,0832.1,5.00,0.00,31.0,28.1,00.0,39.5,32.0,33.7,0000.0,0009.24,0005.80,0005.16
2022-08-16 20:51:00,,0832.1,5.00,0.00,31.0,28.3,00.0,39.5,32.0,33.4,0000.0,0009.23,0005.83,0005.18
2022-08-16 20:52:00,,0832.1,5.00,0.00,30.9,28.4,00.0,39.5,32.1,33.5,0000.0,0009.33,0005.87,0005.18
2022-08-16 20:53:00,,0832.1,5.00,0.00,30.9,28.5,00.0,39.5,32.1,33.7,0000.0,0009.37,0005.89,0005.17
2022-08-16 20:54:00,,0832.1,5.00,0.00,30.9,28.6,00.0,39.5,32.1,34.3,0000.0,0009.52,0005.92,0005.18
2022-08-16 20:55:00,,0832.1,5.02,0.00,30.9,28.7,00.0,39.5,32.1,35.0,0000.0,0009.39,0005.91,0005.18
2022-08-16 20:56:00,,0832.1,5.00,0.00,31.0,28.8,00.0,39.5,32.2,34.3,0000.0,0009.29,0005.90,0005.18
2022-08-16 20:57:00,,0832.1,5.00,0.00,31.1,28.9,00.0,39.5,32.3,33.3,0000.0,0009.39,0005.92,0005.18
2022-08-16 20:58:00,,0832.1,5.00,0.00,31.1,29.0,00.0,39.5,32.3,33.8,0000.0,0009.37,0005.91,0005.17
2022-08-16 20:59:00,,0832.0,5.00,0.00,31.1,29.0,00.0,39.5,32.3,33.5,0000.0,0009.45,0005.94,0005.17
